Theta_e
300 300 300 300 299 299 299 298 298 297 297 297 297 297 297 297 296 296 296 296 296 296 296 295 295 295 294 294 293 293 292 292 292 291 290 290 289 289 289 290 290 290
301 300 300 300 300 300 299 299 299 298 298 298 297 297 297 297 296 296 296 296 296 296 296 296 296 295 295 294 294 293 292 292 292 291 291 290 290 289 289 289 289 290
301 300 300 300 300 300 299 299 299 299 299 299 298 298 298 297 297 297 297 296 296 296 296 295 295 295 295 295 294 294 293 293 293 291 290 290 290 289 289 289 289 289
301 301 300 300 300 300 299 299 299 299 299 299 299 299 298 298 298 298 298 297 297 297 297 296 295 295 295 295 294 294 294 294 294 292 291 291 291 290 290 289 289 289
301 301 300 300 300 300 300 299 299 299 299 299 299 299 298 298 298 298 298 298 298 298 297 297 296 296 295 294 294 294 294 294 294 293 292 292 292 292 291 290 289 289
301 301 301 301 300 300 300 300 299 299 299 299 299 299 298 298 298 298 298 298 298 298 298 297 297 297 296 295 294 294 294 294 294 293 293 293 293 293 292 291 289 289
301 301 301 301 300 300 300 300 300 300 299 299 299 299 298 298 298 298 298 298 297 297 297 297 297 297 297 296 295 294 294 293 293 293 293 293 293 293 293 292 291 290
301 301 301 301 301 300 300 300 300 300 300 299 299 299 299 298 298 298 298 297 297 297 297 297 297 297 297 296 295 295 294 294 294 293 293 293 292 292 293 293 292 291
302 302 301 301 301 301 300 300 300 300 300 299 299 298 298 298 298 298 298 297 297 297 297 297 297 297 296 296 295 295 295 294 294 293 293 293 292 292 293 292 292 291
302 302 302 302 301 300 300 299 299 299 299 299 298 298 298 298 298 298 298 297 297 297 297 297 297 297 296 296 295 295 295 294 294 293 293 293 292 292 292 292 291 291
301 301 301 301 301 300 299 299 299 299 299 299 298 298 298 298 298 298 298 297 297 298 297 297 297 297 297 296 296 295 295 295 294 294 293 293 292 292 292 292 291 291
300 301 301 300 300 300 299 299 299 299 299 299 298 298 298 298 298 298 298 298 298 298 297 297 297 297 296 296 296 296 295 295 294 294 294 293 293 292 292 291 291 291
300 300 300 300 300 299 299 299 299 299 299 299 299 298 298 299 299 298 298 298 298 298 298 298 298 297 297 296 296 296 296 295 294 294 294 294 293 292 292 292 291 291
301 300 300 300 300 299 299 299 299 299 299 299 299 298 298 299 299 299 299 298 298 298 298 298 298 298 297 297 297 296 296 295 295 294 294 294 293 293 292 292 292 292
301 300 300 300 299 299 299 299 299 299 299 299 299 299 299 299 298 298 298 299 299 299 299 298 298 298 298 297 297 296 296 295 295 294 294 294 293 293 293 292 292 292
300 300 300 300 299 299 299 299 299 299 299 299 299 299 299 299 298 298 299 299 299 299 299 299 299 300 299 298 297 296 295 295 294 294 294 293 293 293 293 292 292 292
300 300 300 300 300 299 299 299 299 299 299 299 299 299 300 299 299 299 299 299 299 300 300 300 300 301 300 299 298 296 295 294 294 294 294 293 293 293 293 292 292 292
300 300 300 300 300 299 299 299 299 299 299 299 299 300 300 300 299 299 299 299 299 299 300 301 301 301 300 299 298 297 295 294 294 294 293 293 293 293 293 292 292 292
300 299 299 299 300 300 299 299 298 298 298 299 299 300 299 299 300 299 299 299 298 299 300 301 302 302 301 300 299 297 296 294 294 293 293 293 293 292 292 292 292 291
299 299 299 299 299 299 299 298 298 298 298 299 299 299 299 299 300 300 299 299 299 299 300 301 301 302 301 300 299 298 296 295 294 293 292 292 292 292 292 292 292 291
299 299 299 299 299 299 298 298 298 298 298 298 299 299 299 299 299 299 300 300 299 299 299 300 301 302 301 301 300 298 297 295 294 293 292 292 292 292 292 292 292 291
299 299 299 299 298 297 297 297 297 297 298 298 298 299 299 299 299 299 299 300 300 299 298 299 301 302 301 301 300 299 297 295 294 293 292 292 293 293 292 292 292 291
298 298 298 298 298 297 296 297 297 297 298 298 298 298 299 299 299 299 299 299 299 299 298 298 300 301 301 300 300 299 297 295 294 293 292 292 293 293 293 292 292 291
298 298 298 298 297 297 296 297 297 298 298 298 297 297 298 298 298 298 298 298 298 298 298 297 299 300 300 300 300 299 297 295 294 293 292 292 292 293 293 292 292 292
298 297 297 297 297 297 297 297 297 297 298 297 297 297 297 297 297 297 296 297 297 297 297 297 297 299 300 299 300 299 297 295 294 292 292 292 292 292 293 293 292 292
297 297 297 297 297 297 297 297 297 297 297 297 296 296 296 296 296 296 295 296 296 296 297 297 297 298 299 299 299 299 298 296 294 292 292 292 292 291 292 292 293 292
Wind_Speed
14 14 14 15 15 16 16 16 16 16 16 16 16 16 15 14 13 11 12 12 12 12 12 12 12 12 12 12 13 13 13 12 12 11 11 11 11 11 12 12 12 12
14 14 15 15 15 15 15 15 15 15 16 16 16 17 16 15 14 14 14 14 14 14 13 13 13 13 14 14 14 15 15 16 15 14 15 15 14 14 14 13 13 14
16 16 16 16 16 15 15 15 15 16 16 16 16 16 16 15 15 14 14 15 15 16 16 16 15 15 16 16 16 17 17 18 18 17 17 18 18 17 17 16 15 16
16 17 18 18 18 17 16 16 16 16 16 16 16 15 15 15 15 15 15 15 16 17 17 17 17 17 17 18 18 19 19 19 19 19 20 21 21 21 20 19 19 19
16 17 18 18 19 19 18 18 18 17 17 17 16 15 15 15 15 15 15 16 17 17 17 18 18 18 19 19 20 21 21 21 21 21 23 23 23 23 23 23 22 22
17 17 17 18 19 19 20 20 19 19 19 18 18 16 15 15 15 16 16 17 17 18 18 19 19 19 19 19 21 22 23 23 22 23 25 25 25 24 25 25 25 26
19 18 18 19 20 20 21 21 21 20 20 19 19 18 17 17 17 17 17 17 18 18 19 19 20 20 19 19 21 23 23 23 23 24 26 27 27 27 27 27 28 28
20 20 20 20 21 21 22 23 22 22 21 20 21 20 19 19 19 18 18 19 20 20 20 20 20 20 20 20 21 23 23 23 23 24 26 28 29 29 29 29 29 30
21 21 21 22 22 22 23 23 23 22 21 22 22 21 21 21 20 20 20 20 21 22 22 21 21 21 20 20 21 22 22 23 23 23 25 27 29 30 29 29 30 31
22 22 22 23 23 23 23 23 23 22 22 23 23 23 23 22 21 21 21 22 23 23 23 22 22 21 21 21 21 21 22 23 23 24 25 27 28 29 28 29 30 31
22 23 23 24 24 24 23 22 21 22 22 23 23 23 23 23 23 23 22 23 23 23 23 23 22 21 21 21 20 20 22 23 23 24 25 27 28 28 28 28 29 31
22 23 23 24 25 25 24 22 21 21 22 22 23 23 24 24 24 24 23 23 23 23 22 22 22 21 21 21 21 20 22 23 24 24 25 27 27 28 28 27 29 30
24 23 23 24 25 25 25 24 23 22 22 22 22 22 24 24 24 24 24 23 23 23 22 22 22 22 22 21 21 20 21 23 24 24 25 26 27 27 27 27 28 29
25 24 24 24 25 25 26 25 25 23 22 22 22 23 24 24 24 24 23 23 23 23 22 22 22 23 23 22 21 21 21 22 23 24 24 25 26 27 27 27 28 29
25 24 24 25 25 26 26 27 26 25 24 23 23 24 25 24 23 23 23 23 23 23 23 22 23 24 24 23 22 21 21 21 22 23 24 25 26 27 27 28 28 29
25 25 25 26 26 27 27 27 27 26 26 26 25 25 25 25 24 23 23 24 23 23 24 24 24 25 24 23 22 21 21 22 22 23 24 24 26 27 28 29 29 29
26 26 26 27 28 28 28 28 27 27 27 27 27 27 27 26 26 25 25 24 23 23 24 25 26 25 24 23 22 21 22 22 23 24 24 25 26 27 29 30 30 30
29 29 29 29 30 30 29 29 28 28 28 28 29 30 28 27 27 27 26 25 24 23 24 26 27 26 24 23 22 21 21 22 24 25 25 26 26 27 29 30 30 30
31 31 32 32 31 31 31 30 29 30 30 29 30 30 30 29 29 28 28 27 26 25 26 27 26 25 25 24 23 22 21 21 24 25 26 27 27 27 28 29 30 30
32 33 34 35 34 33 32 31 31 32 31 30 30 31 31 32 31 30 29 29 28 27 27 27 27 26 26 24 23 22 20 20 23 24 26 27 27 27 28 29 29 29
33 34 35 37 36 34 33 33 33 33 32 31 30 31 33 33 32 31 31 31 30 29 28 29 28 26 26 25 24 23 20 20 22 24 26 27 28 28 28 28 29 29
34 34 35 37 37 35 34 34 34 34 33 31 30 31 32 33 33 33 32 32 32 30 30 32 31 28 26 26 25 23 21 20 22 24 26 28 29 29 28 28 28 27
34 34 35 36 37 36 36 35 34 34 33 31 30 31 32 34 35 35 33 32 32 31 32 34 34 30 27 27 25 23 21 21 22 25 27 29 30 30 29 28 27 27
35 34 34 35 36 37 38 37 35 34 33 31 30 32 33 34 34 34 34 33 33 33 33 34 36 33 29 28 27 24 22 22 23 24 27 30 31 30 29 29 28 27
35 33 34 35 35 37 38 38 37 35 32 31 31 32 33 34 33 33 34 34 34 34 34 35 37 36 32 30 29 25 22 22 22 23 27 31 31 30 30 29 28 27
35 34 34 35 36 37 37 38 38 36 33 31 32 33 33 33 33 33 35 36 35 35 35 35 37 37 35 32 31 27 23 22 22 24 29 31 31 29 29 29 29 28
Wind_Direction
300 301 301 303 303 305 307 306 305 302 299 298 297 299 302 303 302 298 295 295 294 295 294 292 290 289 290 290 291 292 292 291 291 290 288 285 280 277 275 274 272 272
300 301 302 302 302 305 307 308 307 304 303 302 299 299 300 300 300 296 292 290 287 286 284 283 283 282 282 283 284 284 286 286 287 288 288 286 285 281 279 277 273 271
299 299 300 301 303 305 307 306 305 304 305 304 302 303 303 301 300 296 294 291 287 284 281 278 277 277 277 278 279 279 280 282 283 285 285 285 285 283 281 280 275 272
298 298 299 300 302 304 304 303 302 303 304 303 304 305 303 301 299 296 293 290 287 286 283 280 277 275 273 272 273 274 274 277 279 281 281 281 282 281 282 281 278 276
296 298 299 300 301 301 300 299 299 301 301 301 303 303 301 299 295 293 291 288 287 287 285 283 281 278 275 272 270 270 270 271 273 275 276 277 278 278 279 279 277 277
290 294 297 299 298 297 295 294 295 296 297 299 300 299 298 295 292 290 290 288 287 286 285 285 283 281 279 276 273 270 269 269 270 271 271 272 273 274 275 275 273 274
281 285 289 292 294 295 293 291 291 291 294 296 295 293 293 292 290 290 290 290 289 287 286 285 284 283 282 279 276 274 272 271 269 269 268 269 270 270 270 270 270 270
276 277 279 283 287 290 291 291 289 288 290 291 290 289 288 286 286 288 290 291 290 289 289 287 286 286 285 282 280 278 277 275 272 270 268 268 268 268 268 268 268 267
278 275 274 276 279 284 288 289 288 287 286 286 286 284 282 281 282 285 287 288 288 288 288 288 289 289 288 285 282 281 281 279 276 273 270 269 268 268 269 268 267 265
282 279 276 275 276 280 284 286 285 283 282 282 283 281 279 278 279 280 282 283 284 285 286 287 288 289 289 287 285 285 283 281 280 276 273 271 269 269 270 269 267 266
284 282 280 279 280 282 284 283 281 279 279 280 280 279 279 278 277 277 278 280 281 283 284 285 286 287 287 286 286 286 284 282 281 278 276 274 272 271 270 269 268 267
283 282 282 282 284 287 287 285 280 277 277 278 278 279 278 277 277 277 277 280 281 282 283 284 285 286 285 285 286 285 284 282 280 279 278 277 275 273 272 270 268 269
284 283 283 284 287 289 289 287 283 279 278 278 279 278 277 276 276 276 277 279 280 280 281 282 284 285 283 284 285 284 283 281 280 279 279 278 277 276 274 272 269 269
286 286 286 286 287 287 288 287 285 282 280 279 278 275 274 274 274 275 276 277 277 278 279 280 282 282 283 284 285 284 282 280 279 279 278 278 278 277 276 274 272 270
287 287 286 286 285 285 286 287 286 284 281 278 276 274 274 274 272 272 273 273 275 277 278 280 280 281 284 286 286 285 282 280 279 277 276 276 277 277 276 274 273 272
284 285 285 284 283 283 284 285 285 284 282 279 276 274 273 272 271 269 268 269 271 274 277 279 280 281 284 287 287 287 284 281 278 276 275 274 274 275 275 275 274 273
281 282 283 282 282 282 282 282 282 281 280 277 275 273 271 270 269 267 265 265 266 270 274 276 278 280 283 285 285 284 282 279 277 275 274 273 272 273 274 274 274 274
280 280 280 280 280 280 279 280 279 277 275 273 272 271 270 269 267 265 264 263 263 265 269 272 274 278 280 283 283 281 278 276 274 274 272 271 270 270 272 273 273 273
280 279 278 278 278 279 278 277 274 271 270 269 269 270 270 267 265 263 263 263 263 264 266 268 271 275 278 281 282 281 278 274 271 270 269 269 268 268 270 271 271 271
280 278 278 278 278 277 276 274 271 269 268 267 267 268 267 265 263 263 263 264 264 264 265 267 268 271 276 280 282 283 279 273 270 269 268 267 267 266 267 268 268 268
278 278 278 277 277 275 273 271 269 268 267 265 265 265 265 265 265 264 263 264 264 265 265 266 267 268 273 278 281 283 281 274 270 268 267 267 267 266 266 266 267 267
277 277 277 277 276 273 270 269 267 266 266 265 264 264 264 264 264 263 262 263 265 265 265 266 267 268 271 275 279 281 278 272 269 267 267 267 268 267 266 266 266 266
278 276 275 277 275 271 268 267 266 266 266 264 262 261 262 263 264 264 264 264 264 264 264 266 268 268 269 273 276 277 275 270 268 267 267 266 268 269 268 268 267 265
278 275 274 274 273 270 268 268 266 266 266 264 261 260 261 263 264 266 266 265 264 264 264 266 269 270 270 271 273 273 271 268 267 266 267 266 267 269 269 269 269 268
279 274 272 270 270 270 269 268 267 266 265 264 262 260 261 263 263 264 265 265 265 264 265 267 269 271 270 269 270 270 267 265 263 261 263 265 265 267 270 271 271 271
278 274 270 268 268 270 270 269 269 267 264 262 260 260 261 262 262 262 263 264 265 265 265 266 267 270 271 269 269 267 264 261 257 255 256 261 263 265 268 271 272 272